Change the Weather History Date:

Saturday, June 8, 2013

  Actual Average Record
Temperature  
Mean Temperature 61 °F 60 °F  
Max Temperature 66 °F 73 °F 99 °F (1988)
Min Temperature 55 °F 47 °F 28 °F (1915)
Degree Days  
Heating Degree Days 4 6  
Month to date heating degree days 81 55  
Since 1 June heating degree days 81 55  
Since 1 July heating degree days 8511 8495  
Cooling Degree Days 0 1  
Month to date cooling degree days 0 8  
Year to date cooling degree days 9 18  
Since 1 June cooling degree days 0 8  
Growing Degree Days 10 (Base 50)    
Moisture  
Dew Point 54 °F    
Average Humidity 84    
Maximum Humidity 100    
Minimum Humidity 67    
Precipitation  
Precipitation 0.06 in 0.10 in 2.11 in (1964)
Month to date precipitation 0.47 0.82  
Year to date precipitation 7.56 5.93  
Sea Level Pressure  
Sea Level Pressure 29.71 in    
Wind  
Wind Speed 13 mph (West)    
Max Wind Speed 21 mph    
Max Gust Speed 33 mph    
Visibility 10 miles    
Events Rain    
T = Trace of Precipitation, MM = Missing Value Source: NWS Daily Summary

Daily Weather History Graph

Daily Weather History Graph

Search for Another Location

Airport or City:

Trip Planner

Search our weather history database for the weather conditions in past years. The results will help you decide how hot, cold, wet, or windy it might be!

Date:

Astronomy

Jun. 08, 2013 Rise Set
Actual Time 4:57 AM MDT 8:43 PM MDT
Civil Twilight 4:18 AM MDT 9:22 PM MDT
Nautical Twilight 3:25 AM MDT 10:15 PM MDT
Astronomical Twilight 2:10 AM MDT 11:31 PM MDT
Moon 5:10 AM MDT (6/8) 8:43 PM MDT (6/8)
Length of Visible Light 17h 04m
Length of Day
15h 45m
New Moon, 0% of the Moon is Illuminated
Jun 8
New Moon
Jun 16
First Quarter
Jun 23
Full
Jun 29
Last Quarter
Jul 8
New

Hourly Weather History & Observations

Time (MDT) Temp. Dew Point Humidity Pressure Visibility Wind Dir Wind Speed Gust Speed Precip Events Conditions
12:56 AM 57.9 °F 57.0 °F 97% 29.62 in 10.0 mi South 12.7 mph - N/A   Scattered Clouds
1:56 AM 55.9 °F 54.0 °F 93% 29.61 in 10.0 mi SSE 9.2 mph - N/A   Clear
2:56 AM 55.9 °F 54.0 °F 93% 29.63 in 10.0 mi SSE 10.4 mph - N/A   Overcast
3:56 AM 55.0 °F 53.1 °F 93% 29.63 in 10.0 mi SSE 8.1 mph - 0.00 in Rain Light Rain
4:56 AM 55.9 °F 54.0 °F 93% 29.62 in 5.0 mi South 8.1 mph - 0.04 in Rain Rain
5:04 AM 55.4 °F 53.6 °F 94% 29.65 in 9.0 mi South 9.2 mph - 0.01 in Rain Light Rain
5:13 AM 55.4 °F 53.6 °F 94% 29.64 in 9.0 mi SSE 9.2 mph - 0.02 in Rain Light Rain
5:16 AM 55.4 °F 53.6 °F 94% 29.64 in 8.0 mi SSE 8.1 mph - 0.02 in Rain Light Rain
5:56 AM 57.0 °F 55.0 °F 93% 29.60 in 10.0 mi South 4.6 mph - 0.02 in Rain Light Rain
6:17 AM 57.2 °F 55.4 °F 94% 29.64 in 10.0 mi SSE 9.2 mph - 0.00 in   Mostly Cloudy
6:34 AM 57.2 °F 55.4 °F 94% 29.66 in 10.0 mi SSW 10.4 mph - 0.00 in   Mostly Cloudy
6:43 AM 57.2 °F 55.4 °F 94% 29.66 in 10.0 mi SSW 9.2 mph - 0.00 in   Overcast
6:56 AM 57.0 °F 55.0 °F 93% 29.64 in 10.0 mi SSW 8.1 mph - 0.00 in   Overcast
7:08 AM 57.2 °F 55.4 °F 94% 29.67 in 10.0 mi SSW 6.9 mph - N/A   Overcast
7:35 AM 57.2 °F 55.4 °F 94% 29.67 in 10.0 mi SW 6.9 mph - 0.00 in Rain Light Rain
7:53 AM 57.2 °F 55.4 °F 94% 29.68 in 10.0 mi West 10.4 mph - 0.00 in Rain Light Rain
7:56 AM 57.9 °F 55.9 °F 93% 29.66 in 10.0 mi West 13.8 mph - 0.00 in Rain Light Rain
8:05 AM 57.2 °F 55.4 °F 94% 29.68 in 10.0 mi WNW 16.1 mph 21.9 mph 0.01 in Rain Light Rain
8:14 AM 57.2 °F 55.4 °F 94% 29.69 in 9.0 mi WNW 13.8 mph - 0.01 in Rain Light Rain
8:56 AM 57.0 °F 54.0 °F 89% 29.69 in 10.0 mi WNW 17.3 mph - 0.01 in   Overcast
9:05 AM 57.2 °F 53.6 °F 88% 29.71 in 10.0 mi WNW 18.4 mph 23.0 mph N/A   Overcast
9:29 AM 57.2 °F 53.6 °F 88% 29.72 in 10.0 mi NW 17.3 mph 23.0 mph N/A   Overcast
9:56 AM 57.0 °F 55.0 °F 93% 29.70 in 10.0 mi WNW 13.8 mph - 0.00 in Rain Light Rain
10:04 AM 57.2 °F 55.4 °F 94% 29.71 in 10.0 mi WNW 16.1 mph - 0.00 in Rain Light Rain
10:46 AM 59.0 °F 55.4 °F 88% 29.72 in 10.0 mi WNW 11.5 mph - 0.01 in Rain Light Rain
10:56 AM 59.0 °F 55.9 °F 90% 29.71 in 10.0 mi WNW 12.7 mph - 0.01 in Rain Light Rain
11:35 AM 60.8 °F 55.4 °F 82% 29.74 in 10.0 mi NW 13.8 mph - 0.00 in   Mostly Cloudy
11:56 AM 61.0 °F 55.0 °F 81% 29.73 in 10.0 mi NW 11.5 mph - 0.00 in   Mostly Cloudy
12:16 PM 62.6 °F 53.6 °F 72% 29.74 in 10.0 mi NW 13.8 mph 18.4 mph N/A   Mostly Cloudy
12:56 PM 64.0 °F 54.0 °F 70% 29.72 in 10.0 mi NW 13.8 mph - N/A   Scattered Clouds
1:56 PM 63.0 °F 53.1 °F 70% 29.73 in 10.0 mi WNW 20.7 mph 27.6 mph 0.04 in   Mostly Cloudy
2:56 PM 61.0 °F 53.1 °F 75% 29.76 in 10.0 mi WNW 20.7 mph 29.9 mph N/A   Mostly Cloudy
3:08 PM 62.6 °F 53.6 °F 72% 29.78 in 10.0 mi WNW 18.4 mph - 0.00 in   Overcast
3:51 PM 60.8 °F 53.6 °F 77% 29.79 in 10.0 mi WNW 17.3 mph 25.3 mph 0.00 in   Overcast
3:56 PM 62.1 °F 54.0 °F 75% 29.78 in 10.0 mi WNW 16.1 mph 24.2 mph 0.00 in   Overcast
4:56 PM 62.1 °F 53.1 °F 72% 29.79 in 10.0 mi NW 12.7 mph 20.7 mph 0.00 in   Overcast
5:56 PM 66.0 °F 52.0 °F 60% 29.78 in 10.0 mi NW 16.1 mph 24.2 mph N/A   Mostly Cloudy
6:56 PM 64.0 °F 48.9 °F 58% 29.79 in 10.0 mi NW 18.4 mph 27.6 mph N/A   Clear
7:56 PM 62.1 °F 51.1 °F 67% 29.82 in 10.0 mi NNW 9.2 mph - N/A   Clear
8:56 PM 57.0 °F 48.9 °F 74% 29.85 in 10.0 mi NNW 6.9 mph - N/A   Clear
9:56 PM 53.1 °F 48.0 °F 83% 29.87 in 10.0 mi Calm Calm - N/A   Clear
10:56 PM 54.0 °F 48.0 °F 80% 29.87 in 10.0 mi NW 4.6 mph - N/A   Clear
11:56 PM 52.0 °F 48.0 °F 86% 29.87 in 10.0 mi Calm Calm - N/A   Clear